,,,PA_Meas_PMT16A,,PR_Meas_QMR101_102,,RH_Meas_QMH101,,SR_Meas_QMS101,,TA_Meas_QMH101,,GenWind,,GenWind,
date,time,status,PA,status,PR,status,RH,status,SR,status,TA,status,DirAvg,status,SpdAvg,
2010-07-28, 00:00:04,VALID,1001.55,VALID,0,VALID,88.6638,VALID,0,VALID,24.638,VALID,153,VALID,0.307422,
2010-07-28, 00:01:04,VALID,1001.52,VALID,0,VALID,88.7554,VALID,0,VALID,24.638,VALID,153,VALID,0.374609,
2010-07-28, 00:02:04,VALID,1001.52,VALID,0,VALID,89.1674,VALID,0,VALID,24.5989,VALID,153,VALID,0.464063,
2010-07-28, 00:03:04,VALID,1001.5,VALID,0,VALID,89.6557,VALID,0,VALID,24.5599,VALID,153,VALID,0.451953,
2010-07-28, 00:04:04,VALID,1001.49,VALID,0,VALID,90.0295,VALID,0,VALID,24.5209,VALID,153,VALID,0.08125,
2010-07-28, 00:05:04,VALID,1001.49,VALID,0,VALID,90.1516,VALID,0,VALID,24.4818,VALID,153,VALID,0,
2010-07-28, 00:06:04,VALID,1001.45,VALID,0,VALID,90.2813,VALID,0,VALID,24.4428,VALID,153,VALID,0,
2010-07-28, 00:07:04,VALID,1001.38,VALID,0,VALID,90.472,VALID,0,VALID,24.4037,VALID,153,VALID,0,
2010-07-28, 00:08:04,VALID,1001.37,VALID,0,VALID,90.6399,VALID,0,VALID,24.3647,VALID,153,VALID,0,
2010-07-28, 00:09:04,VALID,1001.33,VALID,0,VALID,90.8383,VALID,0,VALID,24.3452,VALID,153,VALID,0,
2010-07-28, 00:10:04,VALID,1001.32,VALID,0,VALID,90.7772,VALID,0,VALID,24.3257,VALID,153,VALID,0.0660156,
2010-07-28, 00:11:04,VALID,1001.32,VALID,0,VALID,90.6628,VALID,0,VALID,24.3257,VALID,153,VALID,0.725,
2010-07-28, 00:12:04,VALID,1001.32,VALID,0,VALID,90.6399,VALID,0,VALID,24.3452,VALID,153,VALID,0.817578,
2010-07-28, 00:13:04,VALID,1001.29,VALID,0,VALID,90.6323,VALID,0,VALID,24.4037,VALID,153,VALID,0.951563,
2010-07-28, 00:14:04,VALID,1001.3,VALID,0,VALID,90.4797,VALID,0,VALID,24.4446,VALID,153,VALID,0.862891,
2010-07-28, 00:15:04,VALID,1001.26,VALID,0,VALID,90.5026,VALID,0,VALID,24.4428,VALID,153,VALID,0.888672,
2010-07-28, 00:16:04,VALID,1001.26,VALID,0,VALID,90.5788,VALID,0,VALID,24.4818,VALID,153,VALID,0.698828,
2010-07-28, 00:17:04,VALID,1001.25,VALID,0,VALID,90.6628,VALID,0,VALID,24.4818,VALID,153,VALID,0.740625,
2010-07-28, 00:18:04,VALID,1001.23,VALID,0,VALID,90.6246,VALID,0,VALID,24.4623,VALID,154,VALID,0.875,
2010-07-28, 00:19:04,VALID,1001.22,VALID,0,VALID,90.6323,VALID,0,VALID,24.4623,VALID,154,VALID,0.983203,
2010-07-28, 00:20:04,VALID,1001.18,VALID,0,VALID,90.6628,VALID,0,VALID,24.4623,VALID,154,VALID,0.893359,
2010-07-28, 00:21:04,VALID,1001.18,VALID,0,VALID,90.6399,VALID,0,VALID,24.4623,VALID,154,VALID,0.776563,
2010-07-28, 00:22:04,VALID,1001.17,VALID,0,VALID,90.617,VALID,0,VALID,24.4428,VALID,154,VALID,0.586719,
2010-07-28, 00:23:04,VALID,1001.13,VALID,0,VALID,90.6551,VALID,0,VALID,24.4428,VALID,157,VALID,0.710547,
2010-07-28, 00:24:04,VALID,1001.12,VALID,0,VALID,90.6628,VALID,0,VALID,24.4428,VALID,157,VALID,0.640234,
2010-07-28, 00:25:04,VALID,1001.08,VALID,0,VALID,90.7314,VALID,0,VALID,24.4428,VALID,158,VALID,0.635938,
2010-07-28, 00:26:04,VALID,1001.06,VALID,0,VALID,90.6933,VALID,0,VALID,24.4642,VALID,157,VALID,0.659375,
2010-07-28, 00:27:04,VALID,1001.05,VALID,0,VALID,90.6246,VALID,0,VALID,24.4642,VALID,186,VALID,0.729297,
2010-07-28, 00:28:04,VALID,1001.04,VALID,0,VALID,90.6094,VALID,0,VALID,24.4623,VALID,189,VALID,0.6375,
2010-07-28, 00:29:04,VALID,1001.04,VALID,0,VALID,90.5331,VALID,0,VALID,24.4623,VALID,189,VALID,0.721484,
2010-07-28, 00:30:04,VALID,1001.08,VALID,0,VALID,90.4339,VALID,0,VALID,24.5013,VALID,180,VALID,1.10312,
2010-07-28, 00:31:04,VALID,1001.05,VALID,0,VALID,90.3652,VALID,0,VALID,24.5404,VALID,158,VALID,0.821094,
2010-07-28, 00:32:04,VALID,1001.06,VALID,0,VALID,90.2584,VALID,0,VALID,24.5404,VALID,158,VALID,0.902344,
2010-07-28, 00:33:04,VALID,1001.08,VALID,0,VALID,90.0906,VALID,0,VALID,24.5599,VALID,158,VALID,0.569141,
2010-07-28, 00:34:04,VALID,1000.99,VALID,0,VALID,90.0448,VALID,0,VALID,24.5599,VALID,158,VALID,0.494141,
2010-07-28, 00:35:04,VALID,1001,VALID,0,VALID,90.1058,VALID,0,VALID,24.5599,VALID,158,VALID,0.425391,
2010-07-28, 00:36:04,VALID,1001.02,VALID,0,VALID,90.1363,VALID,0,VALID,24.5599,VALID,158,VALID,0,
2010-07-28, 00:37:04,VALID,1000.99,VALID,0,VALID,90.1745,VALID,0,VALID,24.5404,VALID,158,VALID,0,
2010-07-28, 00:38:04,VALID,1000.97,VALID,0,VALID,90.1897,VALID,0,VALID,24.519,VALID,158,VALID,0,
2010-07-28, 00:39:04,VALID,1000.98,VALID,0,VALID,90.2203,VALID,0,VALID,24.5209,VALID,158,VALID,0,
2010-07-28, 00:40:04,VALID,1000.97,VALID,0,VALID,90.2889,VALID,0,VALID,24.48,VALID,158,VALID,0,
2010-07-28, 00:41:04,VALID,1000.98,VALID,0,VALID,90.2584,VALID,0,VALID,24.4818,VALID,158,VALID,0,
2010-07-28, 00:42:04,VALID,1001,VALID,0,VALID,90.2203,VALID,0,VALID,24.4233,VALID,158,VALID,0,
2010-07-28, 00:43:04,VALID,1001.01,VALID,0,VALID,90.3271,VALID,0,VALID,24.3647,VALID,158,VALID,0,
2010-07-28, 00:44:04,VALID,1001.04,VALID,0,VALID,90.4491,VALID,0,VALID,24.3257,VALID,158,VALID,0,
2010-07-28, 00:45:04,VALID,1001.07,VALID,0,VALID,90.6857,VALID,0,VALID,24.3062,VALID,158,VALID,0,
2010-07-28, 00:46:04,VALID,1001.09,VALID,0,VALID,90.8993,VALID,0,VALID,24.2866,VALID,158,VALID,0,
2010-07-28, 00:47:04,VALID,1001.13,VALID,0,VALID,91.1892,VALID,0,VALID,24.2671,VALID,158,VALID,0,
2010-07-28, 00:48:04,VALID,1001.15,VALID,0,VALID,91.3342,VALID,0,VALID,24.2476,VALID,158,VALID,0,
2010-07-28, 00:49:04,VALID,1001.17,VALID,0,VALID,91.4257,VALID,0,VALID,24.2476,VALID,158,VALID,0,
2010-07-28, 00:50:04,VALID,1001.17,VALID,0,VALID,91.4486,VALID,0,VALID,24.2263,VALID,154,VALID,0,
2010-07-28, 00:51:04,VALID,1001.17,VALID,0,VALID,91.4257,VALID,0,VALID,24.2671,VALID,91,VALID,0,
2010-07-28, 00:52:04,VALID,1001.19,VALID,0,VALID,91.3037,VALID,0,VALID,24.2653,VALID,91,VALID,0,
2010-07-28, 00:53:04,VALID,1001.2,VALID,0,VALID,91.1129,VALID,0,VALID,24.2671,VALID,91,VALID,0,
2010-07-28, 00:54:04,VALID,1001.23,VALID,0,VALID,90.9756,VALID,0,VALID,24.2866,VALID,74,VALID,0.0328125,
2010-07-28, 00:55:04,VALID,1001.24,VALID,0,VALID,91.0137,VALID,0,VALID,24.2866,VALID,60,VALID,0.972656,
2010-07-28, 00:56:04,VALID,1001.26,VALID,0,VALID,91.1282,VALID,0,VALID,24.3257,VALID,60,VALID,0.931641,
2010-07-28, 00:57:04,VALID,1001.26,VALID,0,VALID,91.1968,VALID,0,VALID,24.3062,VALID,60,VALID,0.925781,
2010-07-28, 00:58:04,VALID,1001.28,VALID,0,VALID,91.2884,VALID,0,VALID,24.2866,VALID,55,VALID,1.08867,
2010-07-28, 00:59:04,VALID,1001.28,VALID,0,VALID,91.4028,VALID,0,VALID,24.2848,VALID,49,VALID,1.17656,
2010-07-28, 01:00:04,VALID,1001.34,VALID,0,VALID,91.4486,VALID,0,VALID,24.2866,VALID,48,VALID,0.971875,
2010-07-28, 01:01:04,VALID,1001.33,VALID,0,VALID,91.4791,VALID,0,VALID,24.2653,VALID,48,VALID,0.813672,
2010-07-28, 01:02:04,VALID,1001.35,VALID,0,VALID,91.6165,VALID,0,VALID,24.2866,VALID,47,VALID,0.915625,
2010-07-28, 01:03:04,VALID,1001.36,VALID,0,VALID,91.7691,VALID,0,VALID,24.3062,VALID,47,VALID,0.809766,
2010-07-28, 01:04:04,VALID,1001.36,VALID,0,VALID,91.8683,VALID,0,VALID,24.3062,VALID,47,VALID,0.707422,
2010-07-28, 01:05:04,VALID,1001.35,VALID,0,VALID,91.8835,VALID,0,VALID,24.2866,VALID,47,VALID,0.753906,
2010-07-28, 01:06:04,VALID,1001.34,VALID,0,VALID,91.8683,VALID,0,VALID,24.2866,VALID,43,VALID,0.784375,
2010-07-28, 01:07:04,VALID,1001.33,VALID,0,VALID,91.8683,VALID,0,VALID,24.2866,VALID,42,VALID,0.839063,
2010-07-28, 01:08:04,VALID,1001.31,VALID,0,VALID,91.8835,VALID,0,VALID,24.2653,VALID,42,VALID,0.74375,
2010-07-28, 01:09:04,VALID,1001.31,VALID,0,VALID,91.8988,VALID,0,VALID,24.2671,VALID,42,VALID,0.708984,
2010-07-28, 01:10:04,VALID,1001.31,VALID,0,VALID,91.914,VALID,0,VALID,24.2458,VALID,34,VALID,0.723828,
2010-07-28, 01:11:04,VALID,1001.28,VALID,0,VALID,91.9522,VALID,0,VALID,24.2476,VALID,33,VALID,0.787109,
2010-07-28, 01:12:04,VALID,1001.27,VALID,0,VALID,92.0209,VALID,0,VALID,24.2263,VALID,29,VALID,0.836719,
2010-07-28, 01:13:04,VALID,1001.24,VALID,0,VALID,92.0666,VALID,0,VALID,24.2281,VALID,27,VALID,1.21914,
2010-07-28, 01:14:04,VALID,1001.23,VALID,0,VALID,92.12,VALID,0,VALID,24.2086,VALID,22,VALID,1.15117,
2010-07-28, 01:15:04,VALID,1001.26,VALID,0,VALID,92.1353,VALID,0,VALID,24.1891,VALID,22,VALID,1.16758,
2010-07-28, 01:16:04,VALID,1001.25,VALID,0,VALID,92.1582,VALID,0,VALID,24.1696,VALID,22,VALID,1.34414,
2010-07-28, 01:17:04,VALID,1001.22,VALID,0,VALID,92.1506,VALID,0,VALID,24.15,VALID,24,VALID,1.13789,
2010-07-28, 01:18:04,VALID,1001.24,VALID,0,VALID,92.2116,VALID,0,VALID,24.1305,VALID,23,VALID,1.12305,
2010-07-28, 01:19:04,VALID,1001.23,VALID,0,VALID,92.2421,VALID,0,VALID,24.111,VALID,24,VALID,1.00469,
2010-07-28, 01:20:04,VALID,1001.22,VALID,0,VALID,92.326,VALID,0,VALID,24.111,VALID,25,VALID,1.11328,
2010-07-28, 01:21:04,VALID,1001.21,VALID,0,VALID,92.3413,VALID,0,VALID,24.0915,VALID,25,VALID,0.732422,
2010-07-28, 01:22:04,VALID,1001.18,VALID,0,VALID,92.41,VALID,0,VALID,24.1305,VALID,26,VALID,0.75,
2010-07-28, 01:23:04,VALID,1001.17,VALID,0,VALID,92.4786,VALID,0,VALID,24.1305,VALID,30,VALID,0.650391,
2010-07-28, 01:24:04,VALID,1001.13,VALID,0,VALID,92.4863,VALID,0,VALID,24.15,VALID,30,VALID,0.498047,
2010-07-28, 01:25:04,VALID,1001.12,VALID,0,VALID,92.5168,VALID,0,VALID,24.15,VALID,30,VALID,0.528125,
2010-07-28, 01:26:04,VALID,1001.11,VALID,0,VALID,92.5397,VALID,0,VALID,24.1696,VALID,30,VALID,0.660547,
2010-07-28, 01:27:04,VALID,1001.06,VALID,0,VALID,92.5397,VALID,0,VALID,24.1696,VALID,30,VALID,0.633594,
2010-07-28, 01:28:04,VALID,1001.05,VALID,0,VALID,92.5473,VALID,0,VALID,24.15,VALID,30,VALID,0.652344,
2010-07-28, 01:29:04,VALID,1001.04,VALID,0,VALID,92.532,VALID,0,VALID,24.1696,VALID,30,VALID,0.729688,
2010-07-28, 01:30:04,VALID,1001.01,VALID,0,VALID,92.5244,VALID,0,VALID,24.1482,VALID,30,VALID,0.792969,
2010-07-28, 01:31:04,VALID,1001,VALID,0,VALID,92.471,VALID,0,VALID,24.1482,VALID,30,VALID,0.869141,
2010-07-28, 01:32:04,VALID,1000.97,VALID,0,VALID,92.4634,VALID,0,VALID,24.1696,VALID,30,VALID,0.144141,
2010-07-28, 01:33:04,VALID,1000.98,VALID,0,VALID,92.4481,VALID,0,VALID,24.1677,VALID,30,VALID,0,
2010-07-28, 01:34:04,VALID,1000.93,VALID,0,VALID,92.4252,VALID,0,VALID,24.1891,VALID,30,VALID,0,
2010-07-28, 01:35:04,VALID,1000.93,VALID,0,VALID,92.4557,VALID,0,VALID,24.1677,VALID,30,VALID,0,
2010-07-28, 01:36:04,VALID,1000.92,VALID,0,VALID,92.4557,VALID,0,VALID,24.1891,VALID,30,VALID,0,
2010-07-28, 01:37:04,VALID,1000.85,VALID,0,VALID,92.4634,VALID,0,VALID,24.1696,VALID,30,VALID,0,
2010-07-28, 01:38:04,VALID,1000.88,VALID,0,VALID,92.4786,VALID,0,VALID,24.1891,VALID,30,VALID,0,
2010-07-28, 01:39:04,VALID,1000.85,VALID,0,VALID,92.4863,VALID,0,VALID,24.1696,VALID,30,VALID,0,
2010-07-28, 01:40:04,VALID,1000.85,VALID,0,VALID,92.5549,VALID,0,VALID,24.1482,VALID,30,VALID,0,
2010-07-28, 01:41:04,VALID,1000.81,VALID,0,VALID,92.5931,VALID,0,VALID,24.1891,VALID,30,VALID,0,
2010-07-28, 01:42:04,VALID,1000.82,VALID,0,VALID,92.6312,VALID,0,VALID,24.1891,VALID,95,VALID,0,
2010-07-28, 01:43:04,VALID,1000.78,VALID,0,VALID,92.677,VALID,0,VALID,24.2086,VALID,99,VALID,0,
2010-07-28, 01:44:04,VALID,1000.77,VALID,0,VALID,92.6846,VALID,0,VALID,24.2067,VALID,104,VALID,0,
2010-07-28, 01:45:04,VALID,1000.73,VALID,0,VALID,92.6617,VALID,0,VALID,24.2263,VALID,111,VALID,0,
2010-07-28, 01:46:04,VALID,1000.72,VALID,0,VALID,92.6846,VALID,0,VALID,24.2671,VALID,134,VALID,0,
2010-07-28, 01:47:04,VALID,1000.68,VALID,0,VALID,92.677,VALID,0,VALID,24.3062,VALID,148,VALID,0.974609,
2010-07-28, 01:48:04,VALID,1000.7,VALID,0,VALID,92.6083,VALID,0,VALID,24.3257,VALID,149,VALID,0.960547,
2010-07-28, 01:49:04,VALID,1000.7,VALID,0,VALID,92.5244,VALID,0,VALID,24.3238,VALID,149,VALID,0.991016,
2010-07-28, 01:50:04,VALID,1000.67,VALID,0,VALID,92.4863,VALID,0,VALID,24.3629,VALID,148,VALID,1.03125,
2010-07-28, 01:51:04,VALID,1000.67,VALID,0,VALID,92.4481,VALID,0,VALID,24.4037,VALID,148,VALID,0.722266,
2010-07-28, 01:52:04,VALID,1000.63,VALID,0,VALID,92.3947,VALID,0,VALID,24.4019,VALID,148,VALID,0.558984,
2010-07-28, 01:53:04,VALID,1000.61,VALID,0,VALID,92.3718,VALID,0,VALID,24.4233,VALID,148,VALID,0.805859,
2010-07-28, 01:54:04,VALID,1000.61,VALID,0,VALID,92.3413,VALID,0,VALID,24.4214,VALID,148,VALID,0.596875,
2010-07-28, 01:55:04,VALID,1000.62,VALID,0,VALID,92.3031,VALID,0,VALID,24.4214,VALID,148,VALID,0.267969,
2010-07-28, 01:56:04,VALID,1000.58,VALID,0,VALID,92.2421,VALID,0,VALID,24.4409,VALID,139,VALID,0.522656,
2010-07-28, 01:57:04,VALID,1000.58,VALID,0,VALID,92.2192,VALID,0,VALID,24.4428,VALID,127,VALID,0.721484,
2010-07-28, 01:58:04,VALID,1000.55,VALID,0,VALID,92.1353,VALID,0,VALID,24.4409,VALID,117,VALID,1.12109,
2010-07-28, 01:59:04,VALID,1000.55,VALID,0,VALID,92.1048,VALID,0,VALID,24.4623,VALID,120,VALID,0.838281,
2010-07-28, 02:00:04,VALID,1000.55,VALID,0,VALID,92.0819,VALID,0,VALID,24.4623,VALID,122,VALID,0.398438,
2010-07-28, 02:01:04,VALID,1000.51,VALID,0,VALID,91.998,VALID,0,VALID,24.4818,VALID,109,VALID,1.19883,
2010-07-28, 02:02:04,VALID,1000.57,VALID,0,VALID,92.0285,VALID,0,VALID,24.4818,VALID,106,VALID,1.06875,
2010-07-28, 02:03:04,VALID,1000.57,VALID,0,VALID,92.059,VALID,0,VALID,24.4604,VALID,101,VALID,0.626172,
2010-07-28, 02:04:04,VALID,1000.55,VALID,0,VALID,92.0514,VALID,0,VALID,24.5013,VALID,108,VALID,0.953516,
2010-07-28, 02:05:04,VALID,1000.58,VALID,0,VALID,92.0895,VALID,0,VALID,24.5013,VALID,108,VALID,0.444922,
2010-07-28, 02:06:04,VALID,1000.58,VALID,0,VALID,92.1124,VALID,0,VALID,24.5013,VALID,113,VALID,0.635547,
2010-07-28, 02:07:04,VALID,1000.58,VALID,0,VALID,92.1353,VALID,0,VALID,24.48,VALID,113,VALID,0.544531,
2010-07-28, 02:08:04,VALID,1000.57,VALID,0,VALID,92.1048,VALID,0,VALID,24.5013,VALID,113,VALID,0.336328,
2010-07-28, 02:09:04,VALID,1000.6,VALID,0,VALID,92.0971,VALID,0,VALID,24.48,VALID,113,VALID,0.0347656,
2010-07-28, 02:10:04,VALID,1000.61,VALID,0,VALID,92.0971,VALID,0,VALID,24.4604,VALID,113,VALID,0,
2010-07-28, 02:11:04,VALID,1000.58,VALID,0,VALID,92.1124,VALID,0,VALID,24.4604,VALID,113,VALID,0,
2010-07-28, 02:12:04,VALID,1000.59,VALID,0,VALID,92.0743,VALID,0,VALID,24.4409,VALID,113,VALID,0.0253906,
2010-07-28, 02:13:04,VALID,1000.6,VALID,0,VALID,91.9445,VALID,0,VALID,24.4428,VALID,114,VALID,0.071875,
2010-07-28, 02:14:04,VALID,1000.61,VALID,0,VALID,91.8911,VALID,0,VALID,24.4233,VALID,114,VALID,0.205078,
2010-07-28, 02:15:04,VALID,1000.63,VALID,0,VALID,91.7996,VALID,0,VALID,24.4214,VALID,114,VALID,0,
2010-07-28, 02:16:04,VALID,1000.66,VALID,0,VALID,91.7996,VALID,0,VALID,24.4233,VALID,114,VALID,0,
2010-07-28, 02:17:04,VALID,1000.65,VALID,0,VALID,91.8148,VALID,0,VALID,24.4214,VALID,114,VALID,0,
2010-07-28, 02:18:04,VALID,1000.67,VALID,0,VALID,91.7996,VALID,0,VALID,24.4019,VALID,114,VALID,0,
2010-07-28, 02:19:04,VALID,1000.7,VALID,0,VALID,91.7691,VALID,0,VALID,24.4019,VALID,114,VALID,0,
2010-07-28, 02:20:04,VALID,1000.69,VALID,0,VALID,91.6394,VALID,0,VALID,24.3824,VALID,114,VALID,0,
2010-07-28, 02:21:04,VALID,1000.73,VALID,0,VALID,91.5783,VALID,0,VALID,24.3824,VALID,98,VALID,0.482031,
2010-07-28, 02:22:04,VALID,1000.72,VALID,0,VALID,91.5402,VALID,0,VALID,24.3824,VALID,83,VALID,0.314453,
2010-07-28, 02:23:04,VALID,1000.73,VALID,0,VALID,91.4791,VALID,0,VALID,24.4233,VALID,83,VALID,0.397266,
2010-07-28, 02:24:04,VALID,1000.74,VALID,0,VALID,91.4486,VALID,0,VALID,24.4019,VALID,83,VALID,0,
2010-07-28, 02:25:04,VALID,1000.75,VALID,0,VALID,91.4105,VALID,0,VALID,24.4233,VALID,83,VALID,0,
2010-07-28, 02:26:04,VALID,1000.79,VALID,0,VALID,91.4334,VALID,0,VALID,24.4019,VALID,83,VALID,0,
2010-07-28, 02:27:04,VALID,1000.77,VALID,0,VALID,91.3876,VALID,0.112286,VALID,24.4214,VALID,83,VALID,0,
2010-07-28, 02:28:04,VALID,1000.77,VALID,0,VALID,91.3037,VALID,0,VALID,24.4019,VALID,84,VALID,0,
2010-07-28, 02:29:04,VALID,1000.78,VALID,0,VALID,91.2121,VALID,0,VALID,24.4214,VALID,102,VALID,0.709766,
2010-07-28, 02:30:04,VALID,1000.78,VALID,0,VALID,91.1358,VALID,0,VALID,24.4214,VALID,102,VALID,0.429297,
2010-07-28, 02:31:04,VALID,1000.8,VALID,0,VALID,91.1358,VALID,0,VALID,24.4623,VALID,102,VALID,0.457422,
2010-07-28, 02:32:04,VALID,1000.82,VALID,0,VALID,91.1511,VALID,0,VALID,24.4214,VALID,102,VALID,0,
2010-07-28, 02:33:04,VALID,1000.83,VALID,0,VALID,91.1816,VALID,0,VALID,24.4428,VALID,102,VALID,0,
2010-07-28, 02:34:04,VALID,1000.83,VALID,0,VALID,91.2197,VALID,0,VALID,24.4409,VALID,102,VALID,0,
2010-07-28, 02:35:04,VALID,1000.83,VALID,0,VALID,91.2503,VALID,0,VALID,24.4428,VALID,102,VALID,0,
2010-07-28, 02:36:04,VALID,1000.81,VALID,0,VALID,91.2503,VALID,0,VALID,24.4019,VALID,102,VALID,0,
2010-07-28, 02:37:04,VALID,1000.8,VALID,0,VALID,91.2808,VALID,0,VALID,24.4233,VALID,102,VALID,0,
2010-07-28, 02:38:04,VALID,1000.79,VALID,0,VALID,91.2884,VALID,0,VALID,24.4037,VALID,102,VALID,0,
2010-07-28, 02:39:04,VALID,1000.76,VALID,0,VALID,91.4334,VALID,0,VALID,24.4233,VALID,102,VALID,0,
2010-07-28, 02:40:04,VALID,1000.76,VALID,0,VALID,91.5326,VALID,0,VALID,24.4233,VALID,102,VALID,0,
2010-07-28, 02:41:04,VALID,1000.71,VALID,0,VALID,91.5173,VALID,0,VALID,24.4037,VALID,102,VALID,0,
2010-07-28, 02:42:04,VALID,1000.72,VALID,0,VALID,91.4868,VALID,0,VALID,24.4037,VALID,102,VALID,0,
2010-07-28, 02:43:04,VALID,1000.69,VALID,0,VALID,91.4334,VALID,0,VALID,24.3842,VALID,102,VALID,0,
2010-07-28, 02:44:04,VALID,1000.68,VALID,0,VALID,91.3952,VALID,0,VALID,24.4037,VALID,102,VALID,0,
2010-07-28, 02:45:04,VALID,1000.64,VALID,0,VALID,91.4334,VALID,0,VALID,24.3629,VALID,102,VALID,0,
2010-07-28, 02:46:04,VALID,1000.63,VALID,0,VALID,91.4944,VALID,0,VALID,24.3842,VALID,102,VALID,0,
2010-07-28, 02:47:04,VALID,1000.61,VALID,0,VALID,91.4944,VALID,0,VALID,24.3647,VALID,102,VALID,0,
2010-07-28, 02:48:04,VALID,1000.61,VALID,0,VALID,91.5936,VALID,0,VALID,24.3842,VALID,124,VALID,0,
2010-07-28, 02:49:04,VALID,1000.58,VALID,0,VALID,91.4868,VALID,0,VALID,24.3842,VALID,130,VALID,0,
2010-07-28, 02:50:04,VALID,1000.59,VALID,0,VALID,91.441,VALID,0,VALID,24.4037,VALID,130,VALID,0,
2010-07-28, 02:51:04,VALID,1000.56,VALID,0,VALID,91.4563,VALID,0,VALID,24.4037,VALID,130,VALID,0,
2010-07-28, 02:52:04,VALID,1000.58,VALID,0,VALID,91.4334,VALID,0,VALID,24.4233,VALID,130,VALID,0,
2010-07-28, 02:53:04,VALID,1000.58,VALID,0,VALID,91.4257,VALID,0,VALID,24.4037,VALID,130,VALID,0,
2010-07-28, 02:54:04,VALID,1000.59,VALID,0,VALID,91.4639,VALID,0,VALID,24.4233,VALID,130,VALID,0,
2010-07-28, 02:55:04,VALID,1000.59,VALID,0,VALID,91.4868,VALID,0,VALID,24.4428,VALID,107,VALID,0,
2010-07-28, 02:56:04,VALID,1000.59,VALID,0,VALID,91.441,VALID,0,VALID,24.4428,VALID,94,VALID,0,
2010-07-28, 02:57:04,VALID,1000.6,VALID,0,VALID,91.4486,VALID,0,VALID,24.4623,VALID,94,VALID,0,
2010-07-28, 02:58:04,VALID,1000.62,VALID,0,VALID,91.5249,VALID,0,VALID,24.4623,VALID,94,VALID,0,
2010-07-28, 02:59:04,VALID,1000.64,VALID,0,VALID,91.5249,VALID,0,VALID,24.4623,VALID,79,VALID,0,
2010-07-28, 03:00:04,VALID,1000.63,VALID,0,VALID,91.5249,VALID,0,VALID,24.4623,VALID,75,VALID,0.535156,
2010-07-28, 03:01:04,VALID,1000.62,VALID,0,VALID,91.5478,VALID,0,VALID,24.4623,VALID,70,VALID,0.627344,
2010-07-28, 03:02:04,VALID,1000.62,VALID,0,VALID,91.647,VALID,0,VALID,24.4818,VALID,70,VALID,0.708594,
2010-07-28, 03:03:04,VALID,1000.62,VALID,0,VALID,91.6241,VALID,0,VALID,24.4623,VALID,70,VALID,0.489453,
2010-07-28, 03:04:04,VALID,1000.62,VALID,0,VALID,91.6623,VALID,0,VALID,24.4623,VALID,70,VALID,0.262891,
2010-07-28, 03:05:04,VALID,1000.64,VALID,0,VALID,91.7004,VALID,0,VALID,24.4623,VALID,70,VALID,0.328516,
2010-07-28, 03:06:04,VALID,1000.65,VALID,0.5,VALID,91.7233,VALID,0,VALID,24.4214,VALID,70,VALID,0.399609,
2010-07-28, 03:07:04,VALID,1000.63,VALID,0,VALID,91.7614,VALID,0,VALID,24.4428,VALID,70,VALID,0.13125,
2010-07-28, 03:08:04,VALID,1000.65,VALID,0,VALID,91.7843,VALID,0,VALID,24.4428,VALID,70,VALID,0.433594,
2010-07-28, 03:09:04,VALID,1000.66,VALID,0,VALID,91.7996,VALID,0,VALID,24.4233,VALID,70,VALID,0.390625,
2010-07-28, 03:10:04,VALID,1000.71,VALID,0,VALID,91.8683,VALID,0,VALID,24.4214,VALID,70,VALID,0.36875,
2010-07-28, 03:11:04,VALID,1000.7,VALID,0,VALID,91.8835,VALID,0,VALID,24.4233,VALID,70,VALID,0.00585938,
2010-07-28, 03:12:04,VALID,1000.74,VALID,0,VALID,91.9064,VALID,0,VALID,24.4233,VALID,70,VALID,0,
2010-07-28, 03:13:04,VALID,1000.74,VALID,0,VALID,91.8301,VALID,0,VALID,24.4019,VALID,87,VALID,0,
2010-07-28, 03:14:04,VALID,1000.77,VALID,0,VALID,91.8606,VALID,0,VALID,24.4428,VALID,87,VALID,0,
2010-07-28, 03:15:04,VALID,1000.81,VALID,0,VALID,91.8988,VALID,0,VALID,24.4623,VALID,92,VALID,0,
2010-07-28, 03:16:04,VALID,1000.83,VALID,0,VALID,91.8377,VALID,0,VALID,24.4428,VALID,110,VALID,0,
2010-07-28, 03:17:04,VALID,1000.84,VALID,0,VALID,91.8225,VALID,0,VALID,24.4428,VALID,112,VALID,0,
2010-07-28, 03:18:04,VALID,1000.86,VALID,0,VALID,91.8759,VALID,0,VALID,24.4428,VALID,113,VALID,0,
2010-07-28, 03:19:04,VALID,1000.88,VALID,0,VALID,91.8911,VALID,0,VALID,24.4623,VALID,125,VALID,0,
2010-07-28, 03:20:04,VALID,1000.9,VALID,0,VALID,91.914,VALID,0,VALID,24.4428,VALID,125,VALID,0,
2010-07-28, 03:21:04,VALID,1000.92,VALID,0.5,VALID,91.9293,VALID,0,VALID,24.4409,VALID,112,VALID,0,
2010-07-28, 03:22:04,VALID,1000.9,VALID,0,VALID,91.9751,VALID,0,VALID,24.4409,VALID,110,VALID,0,
2010-07-28, 03:23:04,VALID,1000.92,VALID,0,VALID,92.0209,VALID,0,VALID,24.4409,VALID,115,VALID,0,
2010-07-28, 03:24:04,VALID,1000.91,VALID,0,VALID,92.059,VALID,0,VALID,24.4409,VALID,115,VALID,0,
2010-07-28, 03:25:04,VALID,1000.91,VALID,0,VALID,92.0971,VALID,0,VALID,24.4623,VALID,124,VALID,0,
2010-07-28, 03:26:04,VALID,1000.87,VALID,0,VALID,92.1429,VALID,0,VALID,24.4428,VALID,124,VALID,0,
2010-07-28, 03:27:04,VALID,1000.88,VALID,0,VALID,92.1963,VALID,0,VALID,24.4623,VALID,124,VALID,0,
2010-07-28, 03:28:04,VALID,1000.83,VALID,0,VALID,92.2268,VALID,0,VALID,24.4214,VALID,124,VALID,0,
2010-07-28, 03:29:04,VALID,1000.83,VALID,0,VALID,92.2116,VALID,0,VALID,24.4428,VALID,124,VALID,0,
2010-07-28, 03:30:04,VALID,1000.81,VALID,0,VALID,92.2497,VALID,0,VALID,24.4214,VALID,124,VALID,0,
2010-07-28, 03:31:04,VALID,1000.76,VALID,0,VALID,92.2574,VALID,0,VALID,24.4214,VALID,139,VALID,0,
2010-07-28, 03:32:04,VALID,1000.73,VALID,0,VALID,92.2116,VALID,0,VALID,24.4214,VALID,139,VALID,0,
2010-07-28, 03:33:04,VALID,1000.71,VALID,0,VALID,92.1887,VALID,0,VALID,24.4428,VALID,139,VALID,0,
2010-07-28, 03:34:04,VALID,1000.66,VALID,0,VALID,92.1811,VALID,0,VALID,24.4019,VALID,139,VALID,0,
2010-07-28, 03:35:04,VALID,1000.64,VALID,0,VALID,92.1658,VALID,0,VALID,24.4233,VALID,139,VALID,0,
2010-07-28, 03:36:04,VALID,1000.66,VALID,0,VALID,92.1582,VALID,0,VALID,24.4233,VALID,139,VALID,0,
2010-07-28, 03:37:04,VALID,1000.64,VALID,0,VALID,92.12,VALID,0,VALID,24.4214,VALID,136,VALID,0,
2010-07-28, 03:38:04,VALID,1000.63,VALID,0,VALID,92.1277,VALID,0,VALID,24.4428,VALID,129,VALID,0,
2010-07-28, 03:39:04,VALID,1000.66,VALID,0,VALID,92.1353,VALID,0,VALID,24.4623,VALID,124,VALID,0.871484,
2010-07-28, 03:40:04,VALID,1000.63,VALID,0,VALID,92.1124,VALID,0,VALID,24.4818,VALID,132,VALID,1.13828,
2010-07-28, 03:41:04,VALID,1000.62,VALID,0.5,VALID,92.0895,VALID,0,VALID,24.4818,VALID,126,VALID,1.00508,
2010-07-28, 03:42:04,VALID,1000.61,VALID,0,VALID,92.059,VALID,0,VALID,24.48,VALID,111,VALID,0.891406,
2010-07-28, 03:43:04,VALID,1000.62,VALID,0,VALID,92.0056,VALID,0,VALID,24.4604,VALID,127,VALID,0.774219,
2010-07-28, 03:44:04,VALID,1000.56,VALID,0,VALID,92.0132,VALID,0,VALID,24.5013,VALID,126,VALID,0.35625,
2010-07-28, 03:45:04,VALID,1000.59,VALID,0,VALID,92.0132,VALID,0,VALID,24.4604,VALID,119,VALID,0.528906,
2010-07-28, 03:46:04,VALID,1000.53,VALID,0,VALID,92.0437,VALID,0,VALID,24.4604,VALID,112,VALID,0.338281,
2010-07-28, 03:47:04,VALID,1000.56,VALID,0,VALID,92.0666,VALID,0,VALID,24.4818,VALID,112,VALID,0.393359,
2010-07-28, 03:48:04,VALID,1000.58,VALID,0,VALID,92.0132,VALID,0,VALID,24.4409,VALID,112,VALID,0.610547,
2010-07-28, 03:49:04,VALID,1000.58,VALID,0,VALID,92.0132,VALID,0,VALID,24.4604,VALID,119,VALID,0.485156,
2010-07-28, 03:50:04,VALID,1000.58,VALID,0,VALID,91.9369,VALID,0,VALID,24.4604,VALID,116,VALID,1.20039,
2010-07-28, 03:51:04,VALID,1000.58,VALID,0,VALID,91.8911,VALID,0,VALID,24.4818,VALID,117,VALID,1.0082,
2010-07-28, 03:52:04,VALID,1000.54,VALID,0,VALID,91.8606,VALID,0,VALID,24.5013,VALID,103,VALID,1.20625,